Location: Noverd
(38.0910°N, 121.6877°W)
Time: 15:22:23
(UTC+00:00)

Envisat - Pass Details

Date: 16 April 2026
Orbit: 761 x 762 km, 98.4° (Epoch: 15 May)

Event Time Altitude Azimuth Distance (km) Brightness Sun altitude
Rises 12:24:06 0° 348° (NNW) 3,230 6.4 -13.0°
Reaches altitude 10° 12:28:50 10° 308° (NW) 2,298 5.2 -12.2°
Maximum altitude 12:29:30 10° 300° (WNW) 2,279 5.1 -12.0°
Drops below altitude 10° 12:30:11 10° 292° (WNW) 2,296 5.1 -11.9°
Enters shadow 12:30:55 - 284° (WNW) 2,355 5.1 -11.8°
